Find Starlink 11683

NORAD ID: 64239 Int'l Des: 2025-119 Owner: SPXS Country: US Constellation: starlink operational
LEOCIRCULAR

Live-Position

3D-Globus wird geladen...

Über Starlink 11683

Beschreibung wird geladen...

Nächste Überflüge

Passes for default location (London). Set your location on the main map for personalized predictions.

Höhenverlauf

Loading altitude history...

Zweizeiliger Elementsatz

1 64239U 25119G 26139.30163393 .00138015 00000-0 10584-2 0 9999
2 64239 43.0018 143.1735 0002085 278.2337 81.8294 15.70904382 56353
Epoch: 19. Mai 2026 • Age: 6 hours

Aktueller Status

Höhe 357.4 km
Geschwindigkeit 7.70 km/s
Subsatellitenpunkt -11.32°S, 53.02°E
Startdatum 3. Juni 2025
Alter 0.9 years
Typ internet

Technische Details

Klassifizierung Payload
Masse 960.00 kg
Trockenmasse 910.00 kg
Gesamtmasse 960.00 kg
Länge 0.30 m
Durchmesser 4.10 m
Spannweite 29.00 m
Form Box + pan
Hersteller SPXS
Bus-Typ Starlink V2MD
Phasenstatus In Orbit
Besitzer/Staat SPXS/US

Most Searched